Location: Newark
(18.4314°N, 64.6231°W)
Time: 05:12:50
(UTC+00:00)

OTV 5 (USA 277) - Visible Passes

Search period start: 21 July 2019 00:00
Search period end: 31 July 2019 00:00
Orbit: 299 x 335 km, 54.5° (Epoch: 13 July)

Date Brightness Start Highest point End Pass type
(mag) Time Alt. Az. Time Alt. Az. Time Alt. Az.
28 Jul ? 08:52:36 10° S 08:54:31 18° ESE 08:56:26 10° ENE visible
29 Jul ? 09:07:17 19° SW 09:08:59 77° NW 09:11:35 10° NNE visible
30 Jul ? 09:21:58 10° W 09:23:34 16° NW 09:25:16 10° N visible
